Location: Cactus School
(34.5700°N, 118.0931°W)
Time: 14:55:29
(UTC-07:00)

Vanguard 2 - All Passes

Search period start: 23 June 2018 00:00
Search period end: 03 July 2018 00:00
Orbit: 553 x 2939 km, 32.9° (Epoch: 22 June)

Date Brightness Start Highest point End Pass type
(mag) Time Alt. Az. Time Alt. Az. Time Alt. Az.
23 Jun - 01:16:31 10° SSW 01:24:43 24° SSE 01:30:29 10° ESE visible
23 Jun - 03:25:56 10° WSW 03:34:04 50° SSE 03:39:10 10° E visible
23 Jun - 05:36:44 10° W 05:42:34 74° S 05:46:43 10° E daylight
23 Jun - 07:46:30 10° W 07:50:32 42° SSW 07:54:19 10° SE daylight
23 Jun - 09:57:23 10° SW 09:58:22 11° SSW 09:59:23 10° SSW daylight
23 Jun - 23:28:25 10° S 23:32:41 12° SSE 23:36:25 10° SE night (unlit)
24 Jun - 01:33:28 10° SW 01:42:57 32° SSE 01:49:09 10° E visible
24 Jun - 03:43:59 10° WSW 03:52:10 61° S 03:57:15 10° E visible
24 Jun - 05:54:58 10° W 06:00:38 72° S 06:04:44 10° E daylight
24 Jun - 08:04:48 10° W 08:08:29 29° SSW 08:12:00 10° SE daylight
24 Jun - 23:42:52 10° S 23:50:59 18° SSE 23:57:15 10° ESE night (unlit)
25 Jun - 01:50:53 10° SW 02:01:08 41° SSE 02:07:31 10° E visible
25 Jun - 04:02:10 10° WSW 04:10:16 70° S 04:15:17 10° E visible
25 Jun - 06:13:13 10° W 06:18:41 64° S 06:22:43 10° ESE daylight
25 Jun - 08:23:20 10° WSW 08:26:23 20° SSW 08:29:21 10° SSE daylight
25 Jun - 23:58:56 10° SSW 00:09:16 26° SSE 00:16:35 10° ESE visible
26 Jun - 02:08:39 10° SW 02:19:18 51° SSE 02:25:43 10° E visible
26 Jun - 04:20:27 10° W 04:28:23 76° S 04:33:19 10° E visible
26 Jun - 06:31:28 10° W 06:36:41 52° SSW 06:40:38 10° ESE daylight
26 Jun - 08:42:30 10° WSW 08:44:14 12° SSW 08:45:57 10° S daylight
26 Jun - 22:11:14 10° SSE 22:16:40 13° SE 22:21:28 10° SE visible
27 Jun - 00:15:44 10° SSW 00:27:30 34° SSE 00:35:20 10° E visible
27 Jun - 02:26:39 10° WSW 02:37:27 62° SSE 02:43:50 10° E visible
27 Jun - 04:38:47 10° W 04:46:30 77° S 04:51:19 10° E visible
27 Jun - 06:49:47 10° W 06:54:37 38° SSW 06:58:24 10° SE daylight
27 Jun - 22:25:24 10° S 22:34:57 19° SSE 22:42:35 10° ESE visible
28 Jun - 00:33:01 10° SW 00:45:43 43° SSE 00:53:46 10° E visible
28 Jun - 02:44:51 10° WSW 02:55:37 71° S 03:01:53 10° E visible
28 Jun - 04:57:07 10° W 05:04:35 73° S 05:09:20 10° ESE visible
28 Jun - 07:08:12 10° W 07:12:28 27° SSW 07:15:56 10° SSE daylight
28 Jun - 22:41:14 10° SSW 22:53:12 26° SSE 23:02:07 10° E visible
29 Jun - 00:50:40 10° SW 01:03:55 52° SSE 01:12:01 10° E visible
29 Jun - 03:03:10 10° WSW 03:13:46 77° S 03:19:55 10° E visible
29 Jun - 05:15:27 10° W 05:22:38 64° SSW 05:27:16 10° ESE visible
29 Jun - 07:26:57 10° WSW 07:30:14 18° SSW 07:33:05 10° SSE daylight
29 Jun - 20:55:04 10° SSE 21:00:11 12° SE 21:04:55 10° ESE visible
29 Jun - 22:57:50 10° SSW 23:11:24 34° SSE 23:21:02 10° E visible
30 Jun - 01:08:35 10° WSW 01:22:07 62° SSE 01:30:11 10° E visible
30 Jun - 03:21:34 10° W 03:31:55 80° S 03:37:57 10° E visible
30 Jun - 05:33:48 10° W 05:40:37 51° SSW 05:45:07 10° SE daylight
30 Jun - 07:46:46 10° SW 07:47:55 11° SW 07:49:03 10° SSW daylight
30 Jun - 21:08:24 10° S 21:18:24 18° SE 21:26:57 10° ESE visible
30 Jun - 23:14:56 10° SW 23:29:36 43° SSE 23:39:34 10° E visible
01 Jul - 01:26:45 10° WSW 01:40:19 70° SSE 01:48:17 10° E visible
01 Jul - 03:40:00 10° W 03:50:04 79° S 03:55:58 10° E visible
01 Jul - 05:52:13 10° W 05:58:30 39° SSW 06:02:48 10° SE daylight
01 Jul - 21:23:52 10° SSW 21:36:33 25° SE 21:46:53 10° E visible
01 Jul - 23:32:26 10° SW 23:47:49 52° SSE 23:57:54 10° E visible
02 Jul - 01:45:04 10° WSW 01:58:31 77° S 02:06:20 10° E visible
02 Jul - 03:58:25 10° W 04:08:11 73° SSW 04:13:57 10° ESE visible
02 Jul - 06:10:46 10° W 06:16:15 28° SSW 06:20:14 10° SSE daylight
02 Jul - 19:43:02 10° SE 19:43:25 10° SE 19:43:48 10° SE daylight
02 Jul - 21:40:13 10° SSW 21:54:41 33° SSE 22:06:01 10° E visible
